User: anonymous   Login
Location: Unspecified
(0.0000°N, 0.0000°E)
Time: 23:58:06
(UTC+00:00)
Language:

TBA - TO BE ASSIGNED - Orbit

View from above orbital plane
View from above orbital plane
View from above satellite
View from above satellite

Ground track
Ground track

The orbit is defined by the following mean orbital elements,

1 67622U          26145.19818066 +.00000000 +00000-0 +16564-2 0 00007
2 67622  42.9997  67.7855 0001155 269.2443  90.8276 15.27596757    01
Epoch (UTC): 25 May 2026 04:45:22
Eccentricity: 0.0001155
inclination: 42.9997°
perigee height: 482 km
apogee height: 484 km
right ascension of ascending node: 67.7855°
argument of perigee: 269.2443°
revolutions per day: 15.27596757
mean anomaly at epoch: 90.8276°

The dashed part of the orbit path shows where the satellite is in the earth's shadow,  

DLR